Location: Home
(42.5358°N, 72.7383°W)
Time: 10:01:21
(UTC-05:00)

S-56A Canister/Altair - Pass Details

Date: 08 December 2021
Orbit: 634 x 2499 km, 38.9° (Epoch: 22 January)

Event Time Altitude Azimuth Distance (km) Brightness Sun altitude
Rises 21:12:40 0° 225° (SW) 6,020 12.3 -53.1°
Reaches altitude 10° 21:17:08 10° 219° (SW) 4,851 11.7 -53.9°
Enters shadow 21:19:56 17° 214° (SSW) 4,124 11.2 -54.4°
Maximum altitude 21:29:08 43° 155° (SSE) 2,390 - -55.9°
Drops below altitude 10° 21:37:40 10° 87° (E) 3,485 - -57.4°
Sets 21:40:20 0° 81° (E) 4,227 - -57.8°
